Location: Baumgarten
(49.0970°N, 12.7493°E)
Time: 08:32:17
(UTC+00:00)

Cosmos 1500 Rocket - Pass Details

Date: 05 July 2020
Orbit: 602 x 632 km, 82.5° (Epoch: 04 August)

Event Time Altitude Azimuth Distance (km) Brightness Sun altitude
Exits shadow 23:44:48 36° 205° (SSW) 983 4.1 -17.9°
Maximum altitude 23:46:30 72° 281° (W) 656 3.6 -17.9°
Drops below altitude 10° 23:50:55 10° 6° (N) 1,990 7.5 -17.8°
Sets 23:53:09 0° 9° (N) 2,896 8.8 -17.7°
